EB2EMZ-W Weather Reports


time (UTC)temp
F
wind
direction
speed
knots
gust
knots
rain 1hr
in
rain 24hr
in
rain mn
in
humidity
%
barometer
mb
20260510164140 65 15 0.0 0.0 0.00 0.51 0.35 57 991.0
20260510161131 66 319 0.0 0.0 0.00 0.51 0.35 45 991.0
20260510154121 71 308 0.0 0.0 0.00 0.51 0.35 35 991.0
20260510151111 68 337 0.0 0.0 0.00 0.51 0.35 39 991.0
20260510144101 67 337 0.0 2.6 0.00 0.51 0.35 40 991.0
20260510141052 68 337 0.0 0.0 0.00 0.51 0.35 47 1042.0
20260510134042 66 338 0.0 0.0 0.00 0.51 0.35 56 992.0
20260510131031 60 337 0.0 0.0 0.35 0.51 0.35 69 994.0
20260510124021 56 94 0.0 0.0 0.35 0.51 0.35 70 994.0
20260510121012 70 134 0.0 0.0 0.00 0.16 0.00 25 992.0
20260510114002 72 102 0.0 0.0 0.00 0.16 0.00 24 991.0
20260510110952 73 88 0.0 0.0 0.00 0.16 0.00 23 992.0
20260510103943 73 304 0.0 1.7 0.00 0.16 0.00 23 992.0
20260510100934 71 290 0.0 0.0 0.00 0.16 0.00 25 992.0
20260510093924 71 45 0.0 2.6 0.00 0.16 0.00 28 993.0
20260510090915 69 247 0.0 0.0 0.00 0.16 0.00 29 993.0
20260510083906 69 274 0.0 0.0 0.00 0.16 0.00 32 993.0
20260510080858 65 134 0.0 2.6 0.00 0.16 0.00 35 993.0
20260510073849 63 93 0.0 1.7 0.00 0.16 0.00 44 992.0
20260510070840 59 100 0.0 0.0 0.00 0.16 0.00 66 993.0
20260510063831 57 101 0.0 0.0 0.00 0.16 0.00 73 992.0
20260510060821 55 101 0.0 0.0 0.00 0.16 0.00 75 992.0
20260510053812 54 103 0.0 0.0 0.00 0.16 0.00 75 992.0
20260510050802 55 277 0.0 0.0 0.00 0.16 0.00 73 992.0
20260510043754 56 326 0.0 0.0 0.00 0.16 0.00 73 991.0
20260510040745 56 325 0.0 0.0 0.00 0.16 0.00 81 991.0
20260510033736 56 325 0.0 0.0 0.00 0.16 0.00 82 991.0
20260510030727 56 325 0.0 0.0 0.00 0.16 0.00 83 991.0
20260510023717 57 327 0.0 0.0 0.00 0.16 0.00 84 991.0
20260510020707 58 327 0.0 0.0 0.00 0.16 0.00 85 991.0
20260510013657 58 327 0.0 0.0 0.00 0.16 0.00 86 991.0
20260510010649 58 327 0.0 0.0 0.00 0.16 0.00 86 992.0
20260510003640 58 326 0.0 0.0 0.00 0.16 0.00 84 992.0
20260510000632 59 327 0.0 0.0 0.00 0.16 0.00 84 992.0
20260509233622 59 327 0.0 0.0 0.00 0.16 0.00 83 992.0
20260509224407 58 327 0.0 0.0 0.00 0.16 0.00 84 992.0
20260509221358 59 327 0.0 0.0 0.00 0.16 0.00 84 992.0
20260509214348 59 327 0.0 0.0 0.00 0.16 0.16 86 992.0
20260509211340 60 326 0.0 0.0 0.00 0.16 0.16 86 992.0
20260509204331 60 326 0.0 0.0 0.00 0.16 0.16 84 991.0
20260509201322 60 327 0.0 0.0 0.00 0.16 0.16 81 991.0
20260509194310 60 326 0.0 0.0 0.00 0.16 0.16 83 991.0
20260509191302 60 327 0.0 0.0 0.00 0.16 0.16 79 990.9
20260509184250 62 326 0.0 0.0 0.00 0.16 0.16 80 991.0
20260509181241 61 326 0.0 0.0 0.16 0.16 0.16 77 991.0
20260509174231 61 326 0.0 0.0 0.16 0.16 0.16 73 991.0
20260509171222 62 77 0.0 0.0 0.00 0.00 0.00 58 991.9